Location: Musselshell
(46.5176°N, 108.0911°W)
Time: 21:29:50
(UTC+00:00)

PicSat - Pass Details

Date: 05 July 2022
Orbit: 446 x 455 km, 97.4° (Epoch: 13 August)

Event Time Altitude Azimuth Distance (km) Brightness Sun altitude
Exits shadow 06:26:35 17° 249° (WSW) 1,262 ? -19.8°
Maximum altitude 06:27:23 18° 267° (W) 1,214 ? -19.8°
Drops below altitude 10° 06:29:48 10° 312° (NW) 1,619 ? -19.9°
Sets 06:32:22 0° 332° (NNW) 2,503 ? -20.0°
